ASTERIA (43020 NORAD) Tracking and Keplerian Element Data

This shows tracking and keplerian element data for the satellite.

Feedback or suggestion? Click here.




ElementValue
Catalog43020
NameASTERIA
Epoch Orbit5670
Epoch Day323.19714394
Epoch Year2018
RAAN313.6532
Inclination51.6421
Eccentricity0.0003167
Argument of Perigee46.6986
Mean Anonmoly313.4272
Mean Motion15.63088642
Decay Rate0.00017136
L11 43020U 98067NH 18323.19714394 .00017136 00000-0 18984-3 0 9995
L22 43020 51.6421 313.6532 0003167 46.6986 313.4272 15.63088642 56702

Live tracking and technical data element details for ASTERIA (NORAD 43020). ASTERIA can be tracked NOW for your location showing map with azimuth and elevation plus other details from your city location.

Track the satellite on the map from your city or location and see movement details for azimuth, elevation, latitude, longitude, range, height, and movement on the map or in text.







IsCatalogInMostPopularTable: catalog: 43020, numindb: 162
Update: records affected: 1



GetName: 43020 ASTERIA

Hit Count: updated at: Mon, 19 Nov 2018 10:58:42 GMT